Regional Weather Roundup
Issued by NWS

Home | Current Version | Previous Version | Graphics & Text | Print | Product List | Glossary On
Versions: 1 2 3 4 5 6 7 8 9 10 11 12 13 14 15 16 17 18 19 20 21 22 23 24 25 26 27 28
000
ASUS45 KPSR 162110
RWRAZ

ARIZONA HOURLY REGIONAL WEATHER ROUNDUP
NATIONAL WEATHER SERVICE PHOENIX AZ
200 PM MST WED AUG 16 2017

NOTE: FAIR INDICATES FEW OR NO CLOUDS BELOW 12,000 FEET WITH NO
SIGNIFICANT WEATHER AND/OR OBSTRUCTIONS TO VISIBILITY.

AZZ001>003-036-162200-
NORTHWEST ARIZONA

CITY           SKY/WX    TMP DP  RH WIND       PRES   REMARKS
BULLHEAD CITY  SUNNY     99  30   9 SW21G28   29.81F
KINGMAN        SUNNY     90  39  16 W10G17    30.01F
$$

AZZ004>008-015-016-018-162200-
NORTH CENTRAL ARIZONA

CITY           SKY/WX    TMP DP  RH WIND       PRES   REMARKS
GRAND CANYON   MOSUNNY   78  31  17 S10       30.23F
WILLIAMS       SUNNY     73  36  25 VRB5G17   30.24F
PRESCOTT       SUNNY     82  40  22 SE12      30.12F
FLAGSTAFF      MOSUNNY   71  32  23 S14       30.28F
PAYSON           N/A     82  37  20 SW10G16   30.16F
PAGE           SUNNY     90  28  11 NE6       30.03F
$$

AZZ009>014-017-162200-
NORTHEAST ARIZONA

CITY           SKY/WX    TMP DP  RH WIND       PRES   REMARKS
WINSLOW        MOSUNNY   88  31  13 W9        30.11F
SAINT JOHNS    SUNNY     83  34  17 NW10      30.16F
WINDOW ROCK    SUNNY     79  30  16 SW16G23   30.24S
SHOW LOW       SUNNY     75  34  22 SW9G17    30.25F
$$

AZZ540-542>544-546-548-162200-
GREATER PHOENIX AREA

CITY           SKY/WX    TMP DP  RH WIND       PRES   REMARKS
PHOENIX        SUNNY    100  42  13 S12G22    29.84F
BUCKEYE        SUNNY     97  45  16 E6        29.86F
GLENDALE       SUNNY     99  45  15 S3        29.87F
LUKE AFB       SUNNY     96  46  17 SW9       29.84F
DEER VALLEY    SUNNY     97  42  15 MISG      29.87F
SCOTTSDALE     SUNNY     95  40  14 SW6       29.89F
MESA-FALCON    SUNNY     99  46  16 S10G18    29.89F
MESA-GATEWAY   SUNNY     97  45  16 E8G18     29.89F
CHANDLER       SUNNY     99  41  13 S10       29.87F
$$

AZZ539-553-162200-
SOUTHWEST MARICOPA COUNTY AND PINAL COUNTY

CITY           SKY/WX    TMP DP  RH WIND       PRES   REMARKS
CASA GRANDE    SUNNY     98  42  14 W12G17    29.88F
GILA BEND      SUNNY    101  41  12 SW9       29.81F
$$

AZZ503-504-507>509-162200-
SOUTHEAST ARIZONA

CITY           SKY/WX    TMP DP  RH WIND       PRES   REMARKS
TUCSON         SUNNY     95  46  18 SW5       29.98F
DAVIS-MONTHAN  SUNNY     99  48  17 W3        29.97F
RYAN FIELD     SUNNY     97  46  17 S7G16     29.96F
NOGALES        SUNNY     88  52  29 CALM      30.08F
SIERRA VISTA   SUNNY     87  40  18 NW9G17    30.14F
DOUGLAS        SUNNY     86  43  22 VRB3      30.10F
SAFFORD        SUNNY     93  42  17 S8        29.99F
$$

AZZ532-162200-
SOUTHWEST ARIZONA

CITY           SKY/WX    TMP DP  RH WIND       PRES   REMARKS
YUMA           NOT AVBL
$$

CAZ041-043-047-048-061-525>527-560>570-162200-
SOUTHERN CALIFORNIA

CITY           SKY/WX    TMP DP  RH WIND       PRES   REMARKS
DOWNTOWN L.A.  SUNNY     76  61  59 VRB3      29.95S
L.A. AIRPORT   MOSUNNY   73  62  68 W15       29.97F
SAN DIEGO      MOSUNNY   75  57  53 W7        29.98F
BURBANK        SUNNY     77  55  46 S8        29.95F
ONTARIO        SUNNY     82  51  34 VRB3      29.95F
RIVERSIDE      SUNNY     81  56  42 VRB5      29.95F
PALM SPRINGS   SUNNY     98  37  12 NE7       29.83F
EL CENTRO NAS  SUNNY     99  24   7 E7        29.80F
IMPERIAL       SUNNY     98  35  11 CALM      29.78F
BLYTHE         SUNNY     97  16   5 S10       29.81F
NEEDLES        SUNNY     99  27   8 SW6       29.83F
$$

NVZ020-UTZ003-162200-
SOUTHERN NEVADA-UTAH

CITY           SKY/WX    TMP DP  RH WIND       PRES   REMARKS
LAS VEGAS      MOSUNNY   96  38  13 SE9G16    29.90F
SALT LAKE CITY MOSUNNY   87  37  17 N8        30.04F
$$

NMZ009-TXZ055-162200-
NEW MEXICO-WEST TEXAS

CITY           SKY/WX    TMP DP  RH WIND       PRES   REMARKS
ALBUQUERQUE    MOSUNNY   85  29  13 VRB5      30.12F
EL PASO        MOSUNNY   92  46  20 VRB5      30.04F
$$


........................KEY........................
SKY/WX - SKY CONDITION/WEATHER
TMP    - TEMPERATURE IN FAHRENHEIT
DP     - DEW POINT IN FAHRENHEIT
RH     - RELATIVE HUMIDITY IN PERCENT
WIND   - DIRECTION AND SPEED IN MILES PER HOUR (MPH)
VRB    - VARIABLE WIND DIRECTION
PRES   - MEAN SEA LEVEL PRESSURE IN INCHES OF MERCURY
         F - FALLING PRESSURE   R - RISING PRESSURE
         S - STEADY PRESSURE
VSB    - VISIBILITY IN MILES
HX     - HEAT INDEX IN FAHRENHEIT
WCI    - WIND CHILL INDEX IN FAHRENHEIT
TC     - TEMPERATURE IN CELSIUS WHICH IS ALSO KNOWN AS
         TEMPERATURE IN CENTIGRADE
AFB    - AIR FORCE BASE
         LUKE AFB IS LUKE AIR FORCE BASE
         DAVIS-MONTHAN IS DAVIS-MONTHAN AIR FORCE BASE
NAS    - NAVAL AIR STATION
         EL CENTRO NAS IS EL CENTRO NAVAL AIR STATION
N/A    - NOT AVAILABLE





USA.gov is the U.S. government's official web portal to all federal, state and local government web resources and services.